STARLINK-32536, 61925

Orbit data source: Space-Track

STARLINK-32536, 61925 is a payload satellite owned by SpaceX/Seattle (US) in LEO that was launched on Mon, 11 Nov 2024 UTC via an FALCON 9 launch vehicle from the Air Force Eastern Test Range (AFETR). Payloads include a variety of satellites, spacecraft, and rockets equipped with specific instruments for various scientific and technological missions. These include communications satellites like Starlink; space stations such as the ISS; scientific satellites like the Hubble; Earth observation satellites from companies like Planet Labs, Umbra, and HawkEye 360; GPS; miniature CubeSats for education and research; and military/defense satellites.

Loading next visibility...
STARLINK-32536 details
Identifier
61925, 2024-207P
Orbit
LEO
Last TLE update9 hours ago
Origin
Flag of USSpaceX/Seattle (US)
ManufacturerSpaceX/Seattle
MissionOperational spacecraft
Bus & MotorSTARLINK V2M, Unknown motor
Mass730 kg wet, ~700 kg dry
Launch date (UTC)
2024-11-11 (1 week ago)
Launch vehicle
FALCON 9
Launch site
Air Force Eastern Test Range (AFETR)
Object type
Payload
Rocket body
Debris
Shape & HBRUnknown
Radar Cross SectionRCS unknown

Expand to show TLE details & history

TLE from 9 hours ago
0 STARLINK-32536
1 61925U 24207P   24325.91668981 -.00720781  00000-0 -23845-2 0  9993
2 61925  43.0023  94.4570 0001889 290.2454 240.1791 15.90975763  2657
Epoch: 2024-11-20T22:00Z
Definitive object data (Epoch: 2024-11-20T22:00:01.999Z)
Latitude6.50816°
Longitude-122.94364°
Altitude299.337 km
Speed7.73 km/s
True Right ascension17h 49m 52s
True Declination6° 28' 01"
Sunlit
Object was in daylight at TLE epoch
Visualization TLE readout
Latitude42.5015°
Longitude139.50469°
Altitude305.254 km
Speed7.73 km/s
Apparent Right ascension13h 30m 36s
Apparent Declination2° 55' 35"
Sunlit
Object is in daylight
Visualization observer readout
Local Sidereal Time03:42:37
Azimuth43.333° NE
Elevation-37.562°
Doppler factor1
Orbital elements
Apogee altitude302.811 km
Perigee altitude300.287 km
Semi-major axis6,679.686 km
Eccentricity0.0001889
Inclination43.0023°
RAAN94.457°
Arg. of periapsis290.2454°
True anomaly240.16032°
Mean anomaly240.1791°
Eccentric anomaly240.16971°
Mean motion3.97566 °/min
BSTAR-0.0023845
Orbital period90.55 mins
Loading maneuver chart data...
Loading historical data...
Loading historical data...
Loading historical data...
Loading historical data...
Loading historical data...
Loading historical data...
Loading historical data...

STARLINK-32536 Visibility forecast

Observer location: undefined°, undefined

Span
Click to sort rows by Start time (UTC) header in descending order
Start Az.
Max El. time (UTC)
Max El. Az.
Max El.
End time (UTC)
End Az.
4 mins2024-11-21 12:35:02.679Z230.614° WSW2024-11-21 12:37:02.679Z188.395° SSW33.435°2024-11-21 12:39:02.679Z87.328° E
|